Weather History for Klawock, AK

Change the Weather History Date:

Tuesday, January 29, 2013

  Actual Average Record
Temperature  
Mean Temperature 34 °F -  
Max Temperature 41 °F 38 °F 46 °F (1998)
Min Temperature 26 °F 30 °F 18 °F (2008)
Degree Days  
Heating Degree Days 32    
Moisture  
Dew Point 34 °F    
Average Humidity 94    
Maximum Humidity 100    
Minimum Humidity 81    
Precipitation  
Precipitation 1.05 in - - ()
Sea Level Pressure  
Sea Level Pressure 29.99 in    
Wind  
Wind Speed 5 mph (South)    
Max Wind Speed 12 mph    
Max Gust Speed 18 mph    
Visibility 4 miles    
Events Rain , Snow    
Averages and records for this station are not official NWS values.
T = Trace of Precipitation, MM = Missing Value Source: NWS Daily Summary

Daily Weather History Graph

Daily Weather History Graph

Search for Another Location

Airport:

Trip Planner

Search our weather history database for the weather conditions in past years. The results will help you decide how hot, cold, wet, or windy it might be!

Date:

Astronomy

Jan. 29, 2013 Rise Set
Actual Time 7:49 AM AKST 4:21 PM AKST
Civil Twilight 7:08 AM AKST 5:02 PM AKST
Nautical Twilight 6:24 AM AKST 5:47 PM AKST
Astronomical Twilight 5:41 AM AKST 6:30 PM AKST
Moon 8:09 PM AKST (1/29) 8:12 AM AKST (1/29)
Length of Visible Light 9h 53m
Length of Day
8h 31m
Waning Gibbous, 93% of the Moon is Illuminated
Jan 29
Waning Gibbous
Feb 3
Last Quarter
Feb 9
New
Feb 17
First Quarter
Feb 25
Full

Hourly Weather History & Observations

Time (AKST) Temp. Windchill Dew Point Humidity Pressure Visibility Wind Dir Wind Speed Gust Speed Precip Events Conditions
12:53 AM 27.0 °F 18.7 °F 21.9 °F 81% 30.08 in 8.0 mi NNE 8.1 mph - 0.00 in   Overcast
3:33 AM 26.6 °F 20.0 °F 24.8 °F 93% 29.99 in 9.0 mi NE 5.8 mph - 0.00 in Rain Light Freezing Rain
3:40 AM 26.6 °F 20.0 °F 24.8 °F 93% 29.98 in 10.0 mi Variable 5.8 mph - 0.00 in Rain Light Freezing Rain
3:53 AM 27.0 °F 19.5 °F 24.1 °F 89% 29.97 in 10.0 mi NE 6.9 mph - 0.00 in Rain Light Freezing Rain
4:14 AM 28.4 °F 20.4 °F 24.8 °F 86% 30.00 in 5.0 mi NNE 8.1 mph - 0.00 in Rain Light Freezing Rain
4:32 AM 28.4 °F 21.2 °F 24.8 °F 86% 29.99 in 3.0 mi NE 6.9 mph - N/A Snow Light Snow
4:53 AM 28.0 °F 18.1 °F 24.1 °F 85% 29.98 in 5.0 mi NNE 11.5 mph 16.1 mph N/A Snow Light Snow
5:06 AM 28.4 °F 20.4 °F 24.8 °F 86% 29.97 in 3.0 mi NE 8.1 mph - N/A Snow Light Snow
5:14 AM 28.4 °F 24.6 °F 24.8 °F 86% 29.97 in 2.5 mi Variable 3.5 mph 16.1 mph N/A   Overcast
5:31 AM 28.4 °F 22.2 °F 24.8 °F 86% 29.95 in 4.0 mi Variable 5.8 mph 18.4 mph N/A   Overcast
5:42 AM 28.4 °F 24.6 °F 26.6 °F 93% 29.94 in 9.0 mi Variable 3.5 mph 16.1 mph N/A   Overcast
5:53 AM 28.9 °F 25.2 °F 26.1 °F 89% 29.94 in 8.0 mi Variable 3.5 mph - N/A   Overcast
6:26 AM 30.2 °F 21.9 °F 26.6 °F 86% 29.94 in 6.0 mi NE 9.2 mph - N/A   Overcast
6:53 AM 30.0 °F - 27.0 °F 88% 29.93 in 5.0 mi Calm Calm - N/A   Overcast
7:53 AM 30.9 °F 27.5 °F 28.0 °F 89% 29.92 in 5.0 mi Variable 3.5 mph - N/A   Overcast
8:02 AM 30.2 °F - 28.4 °F 93% 29.92 in 4.0 mi Calm Calm - N/A Rain Light Freezing Rain
8:53 AM 32.0 °F - 30.0 °F 92% 29.91 in 3.0 mi Calm Calm - N/A   Overcast
9:00 AM 32.0 °F - 30.2 °F 93% 29.91 in 4.0 mi Calm Calm - N/A Rain Light Freezing Rain
9:53 AM 33.1 °F - 30.9 °F 92% 29.91 in 4.0 mi Calm Calm - N/A Rain Light Rain
10:17 AM 33.8 °F - 32.0 °F 93% 29.92 in 1.8 mi Calm Calm - N/A Rain Light Rain
10:33 AM 33.8 °F 30.8 °F 32.0 °F 93% 29.91 in 1.2 mi NNE 3.5 mph - N/A Rain Light Rain
10:46 AM 33.8 °F - 32.0 °F 93% 29.91 in 1.8 mi Calm Calm - N/A Rain Light Rain
10:53 AM 33.1 °F 28.7 °F 32.0 °F 96% 29.91 in 1.8 mi Variable 4.6 mph - N/A Rain Light Rain
11:08 AM 33.8 °F 30.8 °F 32.0 °F 93% 29.91 in 1.2 mi NNE 3.5 mph - N/A Rain Light Rain
11:53 AM 34.0 °F - 33.1 °F 96% 29.92 in 1.2 mi Calm Calm - N/A Rain Light Rain
12:07 PM 33.8 °F - 33.8 °F 100% 29.92 in 1.5 mi Calm Calm - N/A   Overcast
12:21 PM 33.8 °F - 32.0 °F 93% 29.92 in 3.0 mi Calm Calm - N/A Rain Light Rain
12:30 PM 35.6 °F - 33.8 °F 93% 29.92 in 1.8 mi Calm Calm - N/A Rain Light Rain
12:45 PM 33.8 °F - 33.8 °F 100% 29.92 in 2.5 mi Calm Calm - N/A Rain Light Rain
12:53 PM 34.0 °F - 33.1 °F 96% 29.93 in 1.2 mi Calm Calm - N/A Rain Light Rain
1:45 PM 37.4 °F 34.9 °F 37.4 °F 100% 29.93 in 1.5 mi Variable 3.5 mph - 0.03 in Rain Light Rain
1:53 PM 35.1 °F 32.2 °F 35.1 °F 100% 29.94 in 1.5 mi South 3.5 mph - 0.04 in Rain Light Rain
2:12 PM 37.4 °F 34.9 °F 37.4 °F 100% 29.94 in 1.2 mi South 3.5 mph - 0.02 in Rain Light Rain
2:34 PM 37.4 °F 33.8 °F 37.4 °F 100% 29.95 in 0.8 mi SSW 4.6 mph - 0.04 in Rain Rain
2:42 PM 37.4 °F 33.8 °F 35.6 °F 93% 29.95 in 1.0 mi SW 4.6 mph - 0.06 in Rain Light Rain
2:53 PM 37.0 °F 33.3 °F 35.1 °F 93% 29.96 in 1.0 mi SSW 4.6 mph - 0.07 in Rain Light Rain
3:29 PM 39.2 °F 35.0 °F 37.4 °F 93% 29.96 in 1.5 mi South 5.8 mph - 0.07 in Rain Light Rain
3:37 PM 39.2 °F 35.9 °F 37.4 °F 93% 29.97 in 3.0 mi South 4.6 mph - 0.09 in Rain Light Rain
3:45 PM 39.2 °F 35.0 °F 37.4 °F 93% 29.97 in 2.0 mi South 5.8 mph - 0.10 in Rain Light Rain
3:53 PM 39.9 °F 36.7 °F 39.0 °F 97% 29.98 in 2.5 mi South 4.6 mph - 0.12 in Rain Light Rain
4:03 PM 39.2 °F 35.9 °F 39.2 °F 100% 29.98 in 1.5 mi South 4.6 mph - 0.03 in Rain Light Rain
4:18 PM 39.2 °F 35.9 °F 39.2 °F 100% 29.99 in 1.5 mi South 4.6 mph - 0.08 in Rain Light Rain
4:37 PM 39.2 °F 37.0 °F 39.2 °F 100% 29.99 in 2.5 mi South 3.5 mph - 0.14 in Rain Light Rain
4:53 PM 39.9 °F 35.8 °F 39.0 °F 97% 30.00 in 2.5 mi SSW 5.8 mph - 0.21 in Rain Light Rain
5:02 PM 39.2 °F 37.0 °F 39.2 °F 100% 30.00 in 4.0 mi SSW 3.5 mph - 0.03 in Rain Light Rain
5:15 PM 39.2 °F 35.9 °F 39.2 °F 100% 30.01 in 6.0 mi SSW 4.6 mph - 0.09 in   Overcast
5:32 PM 39.2 °F 35.9 °F 39.2 °F 100% 30.01 in 7.0 mi South 4.6 mph - 0.17 in   Overcast
5:53 PM 41.0 °F 39.0 °F 39.0 °F 93% 30.02 in 3.0 mi South 3.5 mph - 0.26 in Rain Light Rain
6:01 PM 39.2 °F 37.0 °F 39.2 °F 100% 30.01 in 4.0 mi South 3.5 mph - 0.03 in   Overcast
6:53 PM 39.9 °F 35.8 °F 39.0 °F 97% 30.03 in 10.0 mi SSW 5.8 mph - 0.21 in   Overcast
7:39 PM 39.2 °F 37.0 °F 39.2 °F 100% 30.05 in 2.0 mi South 3.5 mph - 0.07 in Rain Light Rain
7:49 PM 39.2 °F 35.9 °F 39.2 °F 100% 30.05 in 4.0 mi South 4.6 mph - 0.08 in   Overcast
7:53 PM 39.9 °F 36.7 °F 39.0 °F 97% 30.05 in 5.0 mi South 4.6 mph - 0.09 in   Overcast
8:15 PM 39.2 °F 35.0 °F 37.4 °F 93% 30.06 in 10.0 mi South 5.8 mph - 0.02 in   Overcast
8:53 PM 39.9 °F 35.8 °F 37.9 °F 93% 30.07 in 10.0 mi South 5.8 mph - 0.03 in   Overcast
9:13 PM 39.2 °F 35.0 °F 37.4 °F 93% 30.08 in 7.0 mi South 5.8 mph - N/A   Overcast
9:44 PM 39.2 °F 35.9 °F 37.4 °F 93% 30.10 in 10.0 mi South 4.6 mph - N/A   Overcast
9:53 PM 39.9 °F 37.8 °F 37.9 °F 93% 30.10 in 9.0 mi South 3.5 mph - N/A   Overcast
10:27 PM 39.2 °F 35.9 °F 39.2 °F 100% 30.11 in 2.0 mi South 4.6 mph - 0.01 in Rain Light Rain
10:31 PM 39.2 °F 37.0 °F 39.2 °F 100% 30.11 in 1.8 mi South 3.5 mph - 0.02 in Rain Light Rain
10:36 PM 39.2 °F 35.9 °F 39.2 °F 100% 30.11 in 3.0 mi Variable 4.6 mph - 0.02 in Rain Light Rain
10:53 PM 39.9 °F 36.7 °F 37.9 °F 93% 30.12 in 5.0 mi South 4.6 mph - 0.02 in   Overcast
11:02 PM 39.2 °F 35.0 °F 37.4 °F 93% 30.12 in 9.0 mi South 5.8 mph - N/A   Overcast
11:12 PM 39.2 °F 35.9 °F 37.4 °F 93% 30.12 in 4.0 mi South 4.6 mph - N/A   Overcast
11:51 PM 39.2 °F 35.9 °F 37.4 °F 93% 30.13 in 6.0 mi Variable 4.6 mph - N/A   Overcast
11:53 PM 39.0 °F 35.7 °F 37.9 °F 96% 30.13 in 7.0 mi South 4.6 mph - N/A   Overcast